Total_Precipitation_Accumulation
0.04 0.07 0.12 0.12 0.11 0.12 0.14 0.19 0.32 0.41 0.35 0.37 0.49 0.65 0.79 0.99 0.95 0.89 1.00 1.19 1.16 1.13 1.26 1.43 1.90 2.49 2.92 3.43 3.82 3.81 3.52 3.54 3.60 3.62 3.46 3.67 3.88 4.18 4.47 4.39 4.25 4.15 4.04 4.01
0.06 0.07 0.05 0.06 0.09 0.07 0.10 0.18 0.31 0.43 0.37 0.39 0.51 0.76 0.95 1.03 1.10 1.14 1.14 1.34 1.23 1.19 1.33 1.59 2.02 2.34 2.76 3.13 3.32 3.61 3.72 3.74 3.52 3.82 4.09 4.31 4.62 4.74 5.08 5.36 5.40 5.22 4.94 4.71
0.06 0.04 0.02 0.03 0.05 0.06 0.09 0.14 0.27 0.34 0.32 0.35 0.48 0.94 1.09 1.20 1.19 1.32 1.43 1.60 1.52 1.47 1.59 1.87 2.15 2.30 2.55 2.97 3.24 3.53 3.82 3.93 3.84 4.23 4.73 5.15 5.45 5.45 5.53 5.59 5.61 5.57 5.15 4.78
0.04 0.02 0.01 0.02 0.03 0.05 0.08 0.08 0.13 0.19 0.25 0.41 0.43 0.86 1.19 1.38 1.43 1.39 1.59 1.70 1.68 1.47 1.47 1.75 2.03 2.40 2.46 2.78 3.07 3.31 3.65 4.05 4.35 4.75 5.20 5.74 6.03 6.16 6.04 5.72 5.47 5.16 4.78 4.42
0.04 0.03 0.03 0.04 0.03 0.04 0.06 0.05 0.10 0.14 0.21 0.38 0.43 0.72 1.23 1.42 1.46 1.47 1.59 1.63 1.65 1.54 1.48 1.61 1.75 2.09 2.33 2.59 2.86 3.13 3.47 3.88 4.51 5.27 5.80 6.18 6.47 6.43 6.00 5.49 4.90 4.45 4.14 3.85
0.03 0.02 0.02 0.03 0.03 0.02 0.03 0.07 0.14 0.17 0.23 0.47 0.42 0.68 1.35 1.56 1.58 1.67 1.64 1.63 1.68 1.65 1.62 1.70 1.82 2.10 2.25 2.36 2.61 2.93 3.35 3.66 4.17 4.90 5.54 5.83 6.01 5.94 5.55 4.91 4.35 3.97 3.58 3.24
0.05 0.04 0.02 0.02 0.02 0.03 0.04 0.15 0.35 0.46 0.49 0.49 0.40 0.70 1.40 1.62 1.60 1.65 1.73 1.78 1.83 1.85 1.80 1.73 1.74 1.88 2.08 2.17 2.35 2.62 2.94 3.33 3.66 4.05 4.65 4.77 4.81 4.63 4.24 3.98 3.72 3.31 2.92 2.58
0.14 0.12 0.05 0.02 0.02 0.04 0.04 0.12 0.40 0.58 0.58 0.60 0.67 1.15 1.74 1.75 1.69 1.69 1.65 1.61 1.65 1.73 1.65 1.62 1.56 1.76 1.98 2.17 2.31 2.42 2.62 2.97 3.28 3.40 3.53 3.50 3.42 3.37 3.20 2.98 2.68 2.40 2.19 2.04
0.22 0.18 0.07 0.03 0.02 0.03 0.05 0.07 0.15 0.26 0.39 0.64 0.99 1.50 1.98 2.08 1.93 1.76 1.67 1.57 1.53 1.52 1.45 1.48 1.48 1.58 1.76 2.01 2.12 2.19 2.25 2.39 2.42 2.44 2.48 2.50 2.51 2.39 2.31 2.22 1.99 1.82 1.70 1.58
0.16 0.15 0.08 0.05 0.04 0.05 0.05 0.08 0.13 0.29 0.53 0.83 1.18 1.73 2.19 2.38 2.20 1.76 1.55 1.44 1.41 1.44 1.44 1.45 1.48 1.53 1.49 1.54 1.63 1.75 1.86 1.99 1.99 1.92 1.84 1.90 1.90 1.79 1.66 1.54 1.45 1.36 1.28 1.22
0.14 0.16 0.12 0.08 0.10 0.11 0.10 0.13 0.17 0.32 0.43 0.72 1.31 1.96 2.07 2.39 2.35 2.02 1.69 1.46 1.45 1.54 1.52 1.42 1.44 1.42 1.32 1.25 1.25 1.36 1.48 1.64 1.71 1.66 1.61 1.63 1.59 1.51 1.39 1.30 1.21 1.15 1.10 1.05
0.15 0.24 0.27 0.19 0.16 0.15 0.15 0.18 0.23 0.46 0.53 0.54 1.14 2.10 2.04 2.10 2.25 2.18 1.97 1.75 1.59 1.53 1.49 1.38 1.35 1.39 1.33 1.25 1.17 1.23 1.29 1.25 1.30 1.33 1.44 1.53 1.43 1.37 1.30 1.24 1.17 1.11 0.99 0.93
0.19 0.37 0.60 0.65 0.57 0.32 0.23 0.19 0.20 0.26 0.40 0.61 1.16 2.07 2.22 2.22 2.19 2.15 2.01 1.75 1.62 1.63 1.64 1.46 1.33 1.31 1.31 1.22 1.16 1.17 1.20 1.12 1.09 1.07 1.09 1.21 1.25 1.21 1.18 1.07 0.99 0.95 0.91 0.90
0.18 0.42 0.72 1.13 1.04 0.56 0.33 0.26 0.23 0.28 0.49 0.71 1.09 1.61 1.79 2.07 2.30 2.12 1.86 1.62 1.54 1.66 1.63 1.43 1.34 1.28 1.21 1.15 1.14 1.12 1.06 0.96 0.93 0.92 0.97 1.04 1.06 1.07 1.09 1.01 0.92 0.88 0.84 0.82
0.22 0.49 0.54 0.60 0.43 0.34 0.33 0.32 0.30 0.32 0.43 0.77 1.16 1.56 1.87 2.09 2.13 2.00 1.70 1.46 1.46 1.53 1.57 1.51 1.39 1.27 1.11 1.01 1.01 0.98 0.95 0.90 0.86 0.88 0.94 1.03 0.97 0.93 1.00 1.05 0.94 0.84 0.80 0.77
0.24 0.46 0.49 0.50 0.40 0.39 0.46 0.44 0.47 0.50 0.56 0.74 1.11 1.64 1.83 1.82 1.61 1.58 1.53 1.40 1.52 1.68 1.76 1.69 1.56 1.41 1.21 1.07 1.01 0.99 0.95 0.84 0.78 0.82 0.94 1.01 1.00 0.98 1.02 1.08 1.02 0.94 0.88 0.85
0.31 0.54 0.67 0.68 0.50 0.63 1.01 0.80 0.73 0.74 0.74 0.86 1.21 1.41 1.33 1.37 1.37 1.40 1.42 1.47 1.66 1.82 1.80 1.69 1.61 1.46 1.29 1.23 1.10 1.07 1.02 0.89 0.87 0.88 0.89 0.96 1.01 1.06 1.09 1.07 1.04 1.00 0.98 0.96
0.34 0.59 0.72 0.67 0.81 1.36 1.30 0.80 0.73 0.76 0.77 0.74 0.84 0.89 0.98 1.10 1.23 1.39 1.47 1.61 1.80 1.91 1.96 1.90 1.68 1.50 1.32 1.18 1.08 1.02 0.97 0.90 0.92 0.92 0.88 0.85 0.88 0.91 0.91 0.98 1.03 1.00 0.96 0.91
0.21 0.50 0.79 0.89 1.17 1.41 1.22 0.77 0.71 0.88 1.02 0.76 0.68 0.68 0.79 0.87 1.05 1.48 1.62 1.69 1.82 1.89 1.86 1.82 1.66 1.54 1.41 1.24 1.11 1.03 0.99 0.94 0.90 0.86 0.81 0.74 0.71 0.74 0.75 0.83 0.94 1.00 0.97 0.87
0.22 0.34 0.78 1.00 1.41 1.84 1.55 0.70 0.46 0.74 1.36 0.91 0.62 0.54 0.65 0.88 1.22 1.43 1.41 1.46 1.47 1.46 1.40 1.39 1.35 1.30 1.23 1.11 1.01 1.01 1.00 0.92 0.83 0.75 0.68 0.63 0.62 0.67 0.68 0.74 0.85 0.91 0.92 0.81
0.56 0.63 0.86 1.08 1.43 1.66 0.89 0.48 0.52 1.22 1.55 1.05 0.79 0.69 0.75 0.99 1.10 0.99 0.96 1.10 1.16 1.21 1.18 1.12 1.10 1.12 1.09 0.99 0.97 1.00 0.96 0.89 0.72 0.60 0.58 0.60 0.65 0.68 0.67 0.74 0.81 0.79 0.73 0.72
0.68 0.83 0.98 1.22 1.59 1.71 0.68 0.51 0.93 1.11 0.82 0.78 0.77 0.79 0.82 0.80 0.72 0.69 0.75 0.92 1.12 1.26 1.23 1.13 1.08 1.03 0.95 0.91 0.96 0.99 0.91 0.74 0.60 0.58 0.61 0.65 0.65 0.61 0.60 0.71 0.78 0.71 0.69 0.68
0.83 0.90 1.01 1.24 1.43 1.05 0.56 0.55 0.57 0.57 0.56 0.57 0.58 0.61 0.65 0.71 0.71 0.68 0.76 0.89 1.07 1.15 1.17 1.12 1.03 0.93 0.82 0.77 0.81 0.85 0.72 0.55 0.51 0.56 0.65 0.66 0.62 0.68 0.68 0.65 0.65 0.65 0.67 0.59
0.93 0.75 0.80 0.97 0.95 0.69 0.52 0.44 0.41 0.43 0.47 0.50 0.55 0.58 0.65 0.81 0.83 0.79 0.82 0.94 1.05 1.07 0.97 0.89 0.84 0.79 0.69 0.61 0.59 0.58 0.48 0.47 0.52 0.60 0.62 0.60 0.64 0.74 0.72 0.63 0.53 0.51 0.51 0.48
0.82 0.94 1.08 1.22 1.08 0.81 0.56 0.45 0.45 0.44 0.49 0.55 0.64 0.64 0.68 0.74 0.80 0.82 0.83 0.85 0.86 0.85 0.78 0.70 0.68 0.64 0.53 0.49 0.45 0.41 0.38 0.42 0.52 0.55 0.58 0.59 0.60 0.64 0.67 0.58 0.45 0.42 0.37 0.30
0.55 0.84 1.31 1.52 1.19 1.05 0.80 0.61 0.62 0.62 0.61 0.62 0.59 0.56 0.59 0.58 0.59 0.65 0.67 0.69 0.68 0.69 0.65 0.62 0.58 0.54 0.47 0.45 0.42 0.39 0.35 0.38 0.49 0.53 0.51 0.46 0.48 0.50 0.50 0.51 0.45 0.30 0.18 0.14